OPS 4682 DEB, 58026

Orbit data source: Space-Track

OPS 4682 DEB, 58026 is space debris in LEO originally from a launch on Sat, 03 Apr 1965 UTC launched from the Air Force Western Test Range (AFWTR). Debris objects in space refer to the collection of defunct objects orbiting the Earth. Examples of debris include non-operational satellites, rocket bodies, and fragments generated from explosions, collisions, or faulty payload assembly.

Loading next visibility...
Identifier
58026, 1965-027HP
Orbit
LEO
Country
Flag of USUS
Related business
Manufacturer
Unknown
Mission
Spacecraft
Bus & Motor
Unknown
Mass
Unknown
Launch date (UTC)
1965-04-03 (61 years ago)
Launch vehicle
Unknown
Launch site
Air Force Western Test Range (AFWTR)
Object type
Payload
Rocket body
Debris
Shape & HBR
Unknown
Radar Cross Section
Medium (>0.1 m² and <1 m²)

Expand to show TLE details & history
Last TLE update: 1 week ago

TLE from 1 week ago
0 OPS 4682 DEB
1 58026U 65027HP  26198.90353554  .00000144  00000-0  47726-3 0  9999
2 58026  90.2360   7.8872 0043002  89.6737 270.9311 12.95894567505182
Epoch: 2026-07-17T21:41Z
TLE epoch observation values (Epoch: 2026-07-17T21:41:05.470Z)
Latitude
0.00005°
Longitude
106.89045°
Altitude
1,280.699 km
Speed
7.216 km/s
True Right ascension
00h 31m 32s
True Declination
0° 00' 00"
Sunlit
Object was in daylight at epoch
Visualization orbit readout
Latitude
Unknown
Longitude
Unknown
Altitude
Unknown
Speed
Unknown
Apparent Right ascension
Unknown
Apparent Declination
Unknown
Sunlit
N/A
Visualization observer readout
Local Sidereal Time
18:07:39
Azimuth
Unknown
Elevation
Unknown
Doppler factor
Unknown
Orbital elements
Apogee altitude
1,308.259 km
Perigee altitude
1,242.436 km
Semi-major axis
7,653.484 km
Eccentricity
0.0043
Inclination
90.236°
RAAN
7.8872°
Arg. of periapsis
89.6737°
True anomaly
270.43836°
Mean anomaly
270.9311°
Eccentric anomaly
270.68473°
Mean motion
3.24156 °/min
Orbital period
111.06 mins
BSTAR
0.00047726
Loading maneuver chart data...
Computing Atmospheric mass density...
Loading historical data...
Loading historical data...
Loading historical data...
Loading historical data...
Loading historical data...
Loading historical data...
Loading historical data...

Documentation

Showing up to 5 results
|